Notices

What's New in latest Release from April 7th, 2021:

- Updated Glossary, including Speed of Maximum Gust, and Total Hourly Precipitation

- Updated national and regional climate services offices contacts and prices information

- Addition of station inventory lists for 1981-2010, 1971-2000, and 1961-1990 Normals.

If you haven't already, please take our survey and provide feedback about our website: https://eccc.sondage-survey.ca/f/LanguageSelection.aspx?s=442ca660-fcf1-47c0-95a9-59707d6fd709

Hourly Data Report for April 20, 2017

TORONTO CITY
ONTARIO

43°40'00.000" N
79°24'00.000" W
112.50 m
6158355
71508
XTO

Download Data

Hourly Data (April 2017)
Hourly Data Report for April 20, 2017
TIME
LST
Temp Definition
°C
Dew Point Definition
°C
Rel Hum Definition
%
Precip. Amount Definition
mm

Wind Dir Definition
10's deg

Wind Spd Definition
km/h
Visibility Definition
km
Stn Press Definition
kPa
Hmdx Definition


Wind Chill Definition


Weather Definition


00:00 10.7 5.3 69 0.0 LegendMM LegendMM   100.59     LegendNANA
01:00 10.0 5.4 73 0.0 LegendMM LegendMM   100.61     LegendNANA
02:00 9.6 5.2 74 0.0 LegendMM LegendMM   100.66     LegendNANA
03:00 9.5 5.1 75 0.0 LegendMM LegendMM   100.70     LegendNANA
04:00 9.1 4.9 75 0.0 LegendMM LegendMM   100.69     LegendNANA
05:00 8.2 4.6 78 0.0 LegendMM LegendMM   100.69     LegendNANA
06:00 7.3 3.4 76 0.0 LegendMM LegendMM   100.69     LegendNANA
07:00 7.2 2.9 74 0.0 LegendMM LegendMM   100.77     LegendNANA
08:00 6.6 2.9 77 0.0 LegendMM LegendMM   100.69     LegendNANA
09:00 6.2 2.6 78 0.0 LegendMM LegendMM   100.97     LegendNANA
10:00 5.1 2.9 85 1.2 LegendMM LegendMM   100.80     LegendNANA
11:00 4.8 2.9 88 3.9 LegendMM LegendMM   100.62     LegendNANA
12:00 4.7 2.8 88 0.8 LegendMM LegendMM   100.50     LegendNANA
13:00 4.9 2.4 84 0.0 LegendMM LegendMM   100.33     LegendNANA
14:00 5.8 2.7 80 0.0 LegendMM LegendMM   100.35     LegendNANA
15:00 5.7 3.0 83 0.0 LegendMM LegendMM   100.14     LegendNANA
16:00 5.1 3.4 88 0.8 LegendMM LegendMM   100.02     LegendNANA
17:00 5.7 3.7 87 3.4 LegendMM LegendMM   99.94     LegendNANA
18:00 5.8 4.2 90 5.9 LegendMM LegendMM   99.91     LegendNANA
19:00 5.7 4.4 91 4.0 LegendMM LegendMM   99.90     LegendNANA
20:00 5.5 4.4 93 2.1 LegendMM LegendMM   99.72     LegendNANA
21:00 5.6 4.5 93 0.0 LegendMM LegendMM   99.79     LegendNANA
22:00 5.6 4.6 93 1.0 LegendMM LegendMM   99.62     LegendNANA
23:00 5.8 4.8 94 0.2 LegendMM LegendMM   99.57     LegendNANA

Notes on Data Quality.

Legend

  • E = Estimated
  • M = Missing
  • NA = Not Available*
  • [empty] = Indicates an unobserved value
Date modified: